Time,TemperatureF,DewpointF,PressureIn,WindDirection,WindDirectionDegrees,WindSpeedMPH,WindSpeedGustMPH,Humidity,HourlyPrecipIn,Conditions,Clouds,dailyrainin,SoftwareType,DateUTC
2013-01-29 00:03:00,50.0,49.0,30.08,West,261,5.0,13.0,95,0.00,,,0.56,,2013-01-29 05:03:00,
2013-01-29 00:12:00,50.0,49.0,30.08,West,261,5.0,13.0,95,0.00,,,0.56,,2013-01-29 05:12:00,
2013-01-29 00:22:00,50.0,49.0,30.08,WNW,284,6.0,16.0,95,0.00,,,0.56,,2013-01-29 05:22:00,
2013-01-29 00:32:00,50.0,49.0,30.08,SW,221,5.0,11.0,95,0.00,,,0.56,,2013-01-29 05:32:00,
2013-01-29 00:42:00,50.0,49.0,30.08,SW,221,5.0,11.0,95,0.00,,,0.56,,2013-01-29 05:42:00,
2013-01-29 00:52:00,50.0,49.0,30.08,West,277,7.0,13.0,95,0.00,,,0.56,,2013-01-29 05:52:00,
2013-01-29 01:02:00,50.0,49.0,30.07,WSW,257,7.0,15.0,95,0.00,,,0.56,,2013-01-29 06:02:00,
2013-01-29 01:11:00,50.0,49.0,30.07,WSW,257,7.0,15.0,95,0.00,,,0.56,,2013-01-29 06:11:00,
2013-01-29 01:21:00,50.0,49.0,30.07,West,277,6.0,14.0,95,0.00,,,0.56,,2013-01-29 06:21:00,
2013-01-29 01:32:00,50.0,49.0,30.07,WSW,254,5.0,13.0,95,0.00,,,0.56,,2013-01-29 06:32:00,
2013-01-29 01:42:00,50.0,49.0,30.07,WSW,254,5.0,13.0,95,0.00,,,0.56,,2013-01-29 06:42:00,
2013-01-29 01:52:00,50.0,49.0,30.07,WSW,252,5.0,9.0,95,0.00,,,0.56,,2013-01-29 06:52:00,
2013-01-29 02:02:00,50.0,49.0,30.07,West,267,7.0,13.0,95,0.00,,,0.56,,2013-01-29 07:02:00,
2013-01-29 02:11:00,50.0,49.0,30.07,West,267,7.0,13.0,95,0.00,,,0.56,,2013-01-29 07:11:00,
2013-01-29 02:21:00,50.0,49.0,30.07,WSW,254,7.0,12.0,95,0.01,,,0.57,,2013-01-29 07:21:00,
2013-01-29 02:32:00,50.0,49.0,30.07,WSW,250,5.0,10.0,95,0.01,,,0.57,,2013-01-29 07:32:00,
2013-01-29 02:42:00,50.0,49.0,30.07,WSW,250,5.0,10.0,95,0.01,,,0.57,,2013-01-29 07:42:00,
2013-01-29 02:52:00,50.0,49.0,30.07,WSW,240,6.0,13.0,95,0.01,,,0.57,,2013-01-29 07:52:00,
2013-01-29 03:02:00,50.0,49.0,30.07,WNW,283,6.0,14.0,95,0.01,,,0.57,,2013-01-29 08:02:00,
2013-01-29 03:11:00,50.0,49.0,30.07,WNW,283,6.0,14.0,95,0.01,,,0.57,,2013-01-29 08:11:00,
2013-01-29 03:21:00,50.0,49.0,30.07,West,261,5.0,10.0,95,0.00,,,0.57,,2013-01-29 08:21:00,
2013-01-29 03:32:00,50.0,49.0,30.06,WSW,251,5.0,14.0,95,0.00,,,0.57,,2013-01-29 08:32:00,
2013-01-29 03:42:00,50.0,49.0,30.06,WSW,251,5.0,14.0,95,0.00,,,0.57,,2013-01-29 08:42:00,
2013-01-29 03:52:00,50.0,49.0,30.06,WSW,237,6.0,11.0,95,0.00,,,0.57,,2013-01-29 08:52:00,
2013-01-29 04:02:00,50.0,49.0,30.06,West,265,5.0,11.0,95,0.00,,,0.57,,2013-01-29 09:02:00,
2013-01-29 04:11:00,50.0,49.0,30.06,West,265,5.0,11.0,95,0.00,,,0.57,,2013-01-29 09:11:00,
2013-01-29 04:21:00,50.0,49.0,30.06,WSW,250,7.0,11.0,95,0.00,,,0.52,,2013-01-29 09:21:00,
2013-01-29 04:32:00,50.0,49.0,30.06,WSW,248,4.0,11.0,95,0.01,,,0.53,,2013-01-29 09:32:00,
2013-01-29 04:42:00,50.0,49.0,30.06,WSW,248,4.0,11.0,95,0.01,,,0.53,,2013-01-29 09:42:00,
2013-01-29 04:52:00,50.0,49.0,30.06,West,280,7.0,12.0,95,0.01,,,0.53,,2013-01-29 09:52:00,
2013-01-29 05:01:00,50.0,49.0,30.06,West,269,6.0,13.0,95,0.01,,,0.53,,2013-01-29 10:01:00,
2013-01-29 05:11:00,50.0,49.0,30.06,West,269,6.0,13.0,95,0.01,,,0.53,,2013-01-29 10:11:00,
2013-01-29 05:21:00,50.0,49.0,30.06,WSW,238,4.0,12.0,96,0.03,,,0.49,,2013-01-29 10:21:00,
2013-01-29 05:32:00,50.0,49.0,30.06,SW,221,5.0,13.0,96,0.02,,,0.49,,2013-01-29 10:32:00,
2013-01-29 05:42:00,50.0,49.0,30.06,SW,221,5.0,13.0,96,0.02,,,0.49,,2013-01-29 10:42:00,
2013-01-29 05:52:00,50.0,49.0,30.09,West,261,5.0,13.0,96,0.02,,,0.49,,2013-01-29 10:52:00,
2013-01-29 06:02:00,50.0,49.0,30.09,West,266,5.0,10.0,95,0.02,,,0.49,,2013-01-29 11:02:00,
2013-01-29 06:11:00,50.0,49.0,30.09,West,266,5.0,10.0,95,0.02,,,0.49,,2013-01-29 11:11:00,
2013-01-29 06:22:00,50.0,49.0,30.08,WSW,242,5.0,8.0,96,0.01,,,0.45,,2013-01-29 11:22:00,
2013-01-29 06:32:00,50.0,49.0,30.08,SW,227,7.0,13.0,96,0.01,,,0.45,,2013-01-29 11:32:00,
2013-01-29 06:42:00,50.0,49.0,30.08,SW,227,7.0,13.0,96,0.01,,,0.45,,2013-01-29 11:42:00,
2013-01-29 06:53:00,50.0,49.0,30.08,SW,219,6.0,11.0,96,0.01,,,0.45,,2013-01-29 11:53:00,
2013-01-29 07:02:00,50.0,49.0,30.08,West,269,6.0,10.0,96,0.01,,,0.45,,2013-01-29 12:02:00,
2013-01-29 07:12:00,50.0,49.0,30.08,West,269,6.0,10.0,96,0.01,,,0.45,,2013-01-29 12:12:00,
2013-01-29 07:22:00,51.0,50.0,30.08,WSW,257,6.0,11.0,96,0.00,,,0.34,,2013-01-29 12:22:00,
2013-01-29 07:33:00,51.0,50.0,30.09,NNE,28,6.0,11.0,95,0.00,,,0.34,,2013-01-29 12:33:00,
2013-01-29 07:43:00,51.0,50.0,30.09,NNE,28,6.0,11.0,95,0.00,,,0.34,,2013-01-29 12:43:00,
2013-01-29 07:53:00,51.0,50.0,30.09,SW,217,6.0,14.0,96,0.00,,,0.34,,2013-01-29 12:53:00,
2013-01-29 08:02:00,51.0,50.0,30.09,South,172,7.0,12.0,96,0.00,,,0.34,,2013-01-29 13:02:00,
2013-01-29 08:12:00,51.0,50.0,30.09,South,172,7.0,12.0,96,0.00,,,0.34,,2013-01-29 13:12:00,
2013-01-29 08:22:00,51.0,50.0,30.09,WSW,238,1.0,12.0,95,0.00,,,0.29,,2013-01-29 13:22:00,
2013-01-29 08:32:00,51.0,50.0,30.09,WSW,247,5.0,11.0,95,0.00,,,0.29,,2013-01-29 13:32:00,
2013-01-29 08:43:00,51.0,50.0,30.09,WSW,247,5.0,11.0,95,0.00,,,0.29,,2013-01-29 13:43:00,
2013-01-29 08:53:00,51.0,50.0,30.09,SSE,155,1.0,10.0,96,0.00,,,0.29,,2013-01-29 13:53:00,
2013-01-29 09:02:00,51.0,50.0,30.09,SSW,203,3.0,8.0,95,0.00,,,0.29,,2013-01-29 14:02:00,
2013-01-29 09:12:00,51.0,50.0,30.09,East,87,2.0,10.0,95,0.00,,,0.27,,2013-01-29 14:12:00,
2013-01-29 09:22:00,51.0,50.0,30.09,East,87,2.0,10.0,95,0.00,,,0.27,,2013-01-29 14:22:00,
2013-01-29 09:33:00,51.0,50.0,30.09,South,186,0.0,6.0,95,0.00,,,0.27,,2013-01-29 14:33:00,
2013-01-29 09:43:00,51.0,50.0,30.09,South,186,0.0,6.0,95,0.00,,,0.27,,2013-01-29 14:43:00,
2013-01-29 09:53:00,52.0,51.0,30.09,WSW,239,2.0,5.0,95,0.00,,,0.27,,2013-01-29 14:53:00,
2013-01-29 10:02:00,52.0,51.0,30.09,SW,216,3.0,8.0,95,0.00,,,0.27,,2013-01-29 15:02:00,
2013-01-29 10:12:00,52.0,51.0,30.09,SW,216,3.0,8.0,95,0.00,,,0.27,,2013-01-29 15:12:00,
2013-01-29 10:22:00,52.0,50.0,30.09,SSE,167,1.0,6.0,94,0.00,,,0.27,,2013-01-29 15:22:00,
2013-01-29 10:33:00,52.0,50.0,30.08,SW,214,4.0,7.0,94,0.00,,,0.27,,2013-01-29 15:33:00,
2013-01-29 10:43:00,52.0,50.0,30.08,SW,214,4.0,7.0,94,0.00,,,0.27,,2013-01-29 15:43:00,
2013-01-29 10:53:00,53.0,51.0,30.09,SW,220,2.0,5.0,93,0.00,,,0.27,,2013-01-29 15:53:00,
2013-01-29 11:03:00,54.0,52.0,30.08,South,171,5.0,10.0,92,0.00,,,0.27,,2013-01-29 16:03:00,
2013-01-29 11:12:00,54.0,52.0,30.08,South,171,5.0,10.0,92,0.00,,,0.27,,2013-01-29 16:12:00,
2013-01-29 11:23:00,55.0,52.0,30.08,SW,216,4.0,9.0,90,0.00,,,0.27,,2013-01-29 16:23:00,
2013-01-29 11:32:00,55.0,52.0,30.07,South,188,4.0,10.0,88,0.00,,,0.27,,2013-01-29 16:32:00,
2013-01-29 11:43:00,55.0,52.0,30.07,South,188,4.0,10.0,88,0.00,,,0.27,,2013-01-29 16:43:00,
2013-01-29 11:53:00,57.0,53.0,30.07,South,186,4.0,12.0,86,0.00,,,0.27,,2013-01-29 16:53:00,
2013-01-29 12:03:00,57.0,53.0,30.06,SSW,205,2.0,11.0,85,0.00,,,0.27,,2013-01-29 17:03:00,
2013-01-29 12:12:00,57.0,53.0,30.06,SSW,205,2.0,11.0,85,0.00,,,0.27,,2013-01-29 17:12:00,
2013-01-29 12:22:00,58.0,53.0,30.06,ESE,113,6.0,12.0,82,0.00,,,0.27,,2013-01-29 17:22:00,
2013-01-29 12:33:00,59.0,53.0,30.04,South,180,6.0,13.0,81,0.00,,,0.27,,2013-01-29 17:33:00,
2013-01-29 12:42:00,59.0,53.0,30.04,South,180,6.0,13.0,81,0.00,,,0.27,,2013-01-29 17:42:00,
2013-01-29 12:53:00,59.0,53.0,30.04,NNW,327,0.0,11.0,80,0.00,,,0.27,,2013-01-29 17:53:00,
2013-01-29 13:04:00,60.0,53.0,30.03,WNW,300,2.0,9.0,79,0.00,,,0.27,,2013-01-29 18:04:00,
2013-01-29 13:12:00,60.0,53.0,30.03,WNW,300,2.0,9.0,79,0.00,,,0.27,,2013-01-29 18:12:00,
2013-01-29 13:22:00,60.0,53.0,30.03,SW,233,5.0,10.0,78,0.00,,,0.27,,2013-01-29 18:22:00,
2013-01-29 13:33:00,61.0,54.0,30.03,SW,223,8.0,11.0,77,0.00,,,0.27,,2013-01-29 18:33:00,
2013-01-29 13:42:00,61.0,54.0,30.03,SW,223,8.0,11.0,77,0.00,,,0.27,,2013-01-29 18:42:00,
2013-01-29 13:52:00,61.0,53.0,30.02,WSW,240,7.0,16.0,76,0.00,,,0.27,,2013-01-29 18:52:00,
2013-01-29 14:03:00,62.0,53.0,30.01,West,260,3.0,10.0,73,0.00,,,0.27,,2013-01-29 19:03:00,
2013-01-29 14:12:00,62.0,53.0,30.01,West,260,3.0,10.0,73,0.00,,,0.27,,2013-01-29 19:12:00,
2013-01-29 14:23:00,63.0,53.0,30.01,SSW,203,5.0,13.0,71,0.00,,,0.21,,2013-01-29 19:23:00,
2013-01-29 14:32:00,63.0,53.0,30.00,WSW,246,2.0,14.0,71,0.00,,,0.21,,2013-01-29 19:32:00,
2013-01-29 14:42:00,63.0,53.0,30.00,WSW,246,2.0,14.0,71,0.00,,,0.21,,2013-01-29 19:42:00,
2013-01-29 14:52:00,64.0,54.0,29.99,South,178,5.0,11.0,69,0.00,,,0.21,,2013-01-29 19:52:00,
2013-01-29 15:02:00,64.0,53.0,30.00,WNW,284,4.0,12.0,68,0.00,,,0.21,,2013-01-29 20:02:00,
2013-01-29 15:13:00,64.0,53.0,30.00,WNW,284,4.0,12.0,68,0.00,,,0.21,,2013-01-29 20:13:00,
2013-01-29 15:22:00,64.0,53.0,29.99,SSW,212,1.0,11.0,67,0.00,,,0.14,,2013-01-29 20:22:00,
2013-01-29 15:33:00,64.0,52.0,29.99,SW,223,5.0,13.0,65,0.00,,,0.14,,2013-01-29 20:33:00,
2013-01-29 15:42:00,64.0,52.0,29.99,SW,223,5.0,13.0,65,0.00,,,0.14,,2013-01-29 20:42:00,
2013-01-29 15:53:00,65.0,52.0,29.98,South,189,3.0,10.0,63,0.00,,,0.14,,2013-01-29 20:53:00,
2013-01-29 16:03:00,65.0,52.0,29.98,SSE,150,0.0,10.0,63,0.00,,,0.14,,2013-01-29 21:03:00,
2013-01-29 16:12:00,65.0,52.0,29.98,SSE,150,0.0,10.0,63,0.00,,,0.14,,2013-01-29 21:12:00,
2013-01-29 16:22:00,64.0,51.0,29.97,SSW,212,2.0,6.0,63,0.00,,,0.11,,2013-01-29 21:22:00,
2013-01-29 16:33:00,65.0,53.0,29.97,SSW,196,0.0,8.0,65,0.00,,,0.11,,2013-01-29 21:33:00,
2013-01-29 16:42:00,65.0,53.0,29.97,SSW,196,0.0,8.0,65,0.00,,,0.11,,2013-01-29 21:42:00,
2013-01-29 16:53:00,65.0,52.0,29.96,SW,229,2.0,6.0,63,0.00,,,0.11,,2013-01-29 21:53:00,
2013-01-29 17:03:00,64.0,52.0,29.96,WSW,239,0.0,5.0,64,0.00,,,0.11,,2013-01-29 22:03:00,
2013-01-29 17:12:00,64.0,52.0,29.96,WSW,239,0.0,5.0,64,0.00,,,0.11,,2013-01-29 22:12:00,
2013-01-29 17:22:00,64.0,52.0,29.95,East,97,0.0,5.0,65,0.00,,,0.08,,2013-01-29 22:22:00,
2013-01-29 17:33:00,63.0,51.0,29.95,East,80,0.0,7.0,66,0.00,,,0.08,,2013-01-29 22:33:00,
2013-01-29 17:42:00,63.0,51.0,29.95,East,80,0.0,7.0,66,0.00,,,0.08,,2013-01-29 22:42:00,
2013-01-29 17:53:00,63.0,52.0,29.94,South,190,1.0,5.0,67,0.00,,,0.08,,2013-01-29 22:53:00,
2013-01-29 18:02:00,63.0,52.0,29.93,ESE,111,2.0,8.0,67,0.00,,,0.08,,2013-01-29 23:02:00,
2013-01-29 18:12:00,63.0,52.0,29.93,ESE,111,2.0,8.0,67,0.00,,,0.08,,2013-01-29 23:12:00,
2013-01-29 18:23:00,63.0,52.0,29.93,ENE,74,1.0,6.0,67,0.00,,,0.07,,2013-01-29 23:23:00,
2013-01-29 18:33:00,62.0,51.0,29.93,ESE,112,1.0,4.0,68,0.00,,,0.07,,2013-01-29 23:33:00,
2013-01-29 18:42:00,62.0,51.0,29.93,ESE,112,1.0,4.0,68,0.00,,,0.07,,2013-01-29 23:42:00,
2013-01-29 18:53:00,62.0,51.0,29.93,ENE,74,1.0,4.0,68,0.00,,,0.07,,2013-01-29 23:53:00,
2013-01-29 19:03:00,62.0,52.0,29.92,ENE,77,0.0,3.0,69,0.00,,,0.07,,2013-01-30 00:03:00,
2013-01-29 19:12:00,62.0,52.0,29.92,ENE,77,0.0,3.0,69,0.00,,,0.07,,2013-01-30 00:12:00,
2013-01-29 19:22:00,61.0,51.0,29.92,ENE,78,0.0,2.0,70,0.00,,,0.07,,2013-01-30 00:22:00,
2013-01-29 19:32:00,61.0,52.0,29.94,East,79,0.0,3.0,71,0.00,,,0.07,,2013-01-30 00:32:00,
2013-01-29 19:43:00,61.0,52.0,29.94,East,79,0.0,3.0,71,0.00,,,0.07,,2013-01-30 00:43:00,
2013-01-29 19:53:00,61.0,52.0,29.94,East,79,0.0,2.0,72,0.00,,,0.07,,2013-01-30 00:53:00,
2013-01-29 20:02:00,61.0,52.0,29.94,East,79,1.0,2.0,72,0.00,,,0.07,,2013-01-30 01:02:00,
2013-01-29 20:12:00,61.0,52.0,29.94,East,79,1.0,2.0,72,0.00,,,0.07,,2013-01-30 01:12:00,
2013-01-29 20:22:00,61.0,52.0,29.94,SE,130,1.0,4.0,71,0.00,,,0.06,,2013-01-30 01:22:00,
2013-01-29 20:32:00,61.0,52.0,29.93,SE,130,1.0,2.0,71,0.00,,,0.06,,2013-01-30 01:32:00,
2013-01-29 20:42:00,61.0,52.0,29.93,SE,130,1.0,2.0,71,0.00,,,0.06,,2013-01-30 01:42:00,
2013-01-29 20:52:00,60.0,51.0,29.94,East,98,0.0,4.0,73,0.00,,,0.06,,2013-01-30 01:52:00,
2013-01-29 21:02:00,60.0,52.0,29.93,SSE,153,0.0,2.0,74,0.00,,,0.06,,2013-01-30 02:02:00,
2013-01-29 21:12:00,60.0,52.0,29.93,SSE,153,0.0,2.0,74,0.00,,,0.06,,2013-01-30 02:12:00,
2013-01-29 21:22:00,60.0,51.0,29.94,South,169,0.0,8.0,72,0.00,,,0.06,,2013-01-30 02:22:00,
2013-01-29 21:33:00,60.0,51.0,29.94,ESE,102,1.0,7.0,71,0.00,,,0.06,,2013-01-30 02:33:00,
2013-01-29 21:42:00,60.0,51.0,29.94,ESE,102,1.0,7.0,71,0.00,,,0.06,,2013-01-30 02:42:00,
2013-01-29 21:53:00,61.0,51.0,29.94,SSW,206,1.0,5.0,69,0.00,,,0.06,,2013-01-30 02:53:00,
2013-01-29 22:03:00,61.0,50.0,29.93,ENE,69,1.0,5.0,68,0.00,,,0.06,,2013-01-30 03:03:00,
2013-01-29 22:12:00,61.0,50.0,29.93,ENE,69,1.0,5.0,68,0.00,,,0.06,,2013-01-30 03:12:00,
2013-01-29 22:22:00,60.0,49.0,29.92,ENE,75,2.0,4.0,68,0.00,,,0.05,,2013-01-30 03:22:00,
2013-01-29 22:32:00,60.0,50.0,29.91,ENE,60,1.0,5.0,69,0.00,,,0.05,,2013-01-30 03:32:00,
2013-01-29 22:42:00,60.0,50.0,29.91,ENE,60,1.0,5.0,69,0.00,,,0.05,,2013-01-30 03:42:00,
2013-01-29 22:52:00,60.0,49.0,29.90,East,87,1.0,5.0,68,0.00,,,0.05,,2013-01-30 03:52:00,
2013-01-29 23:02:00,59.0,49.0,29.90,East,90,1.0,4.0,69,0.00,,,0.05,,2013-01-30 04:02:00,
2013-01-29 23:12:00,59.0,49.0,29.90,East,90,1.0,4.0,69,0.00,,,0.05,,2013-01-30 04:12:00,
2013-01-29 23:22:00,59.0,49.0,29.89,East,88,1.0,3.0,70,0.00,,,0.05,,2013-01-30 04:22:00,
2013-01-29 23:32:00,58.0,49.0,29.88,ENE,61,1.0,4.0,71,0.00,,,0.05,,2013-01-30 04:32:00,
2013-01-29 23:42:00,58.0,49.0,29.88,ENE,61,1.0,4.0,71,0.00,,,0.05,,2013-01-30 04:42:00,
2013-01-29 23:52:00,58.0,49.0,29.88,ENE,67,0.0,4.0,71,0.00,,,0.05,,2013-01-30 04:52:00,